Consulta los datos en tiempo real de la estación municipal de Cànoves i Samalús
| Hora UTC | 02:00 |
|---|---|
| Temperatura | 19.7 ºC |
| Humedad | 92.1 % |
| Presión | 1020.4 hPa |
| Pluja | 0.0 mm |
| Velocidad viento | 2.1 km/h |
| Dirección viento | NNW |
| Radiación solar | 0.1 W/m² |
| Temperatura (ºC) | Humedad (%) | Presión (hPa) | Velocidad viento (km/h) | Precipitación (mm) | Radiación solar (W/m²) | |||||||||||||
|---|---|---|---|---|---|---|---|---|---|---|---|---|---|---|---|---|---|---|
| Hora UTC | Aire | Humedad | Presión | Vel. | Dir. | Vel. Max | Dir. | Intent. máx 5 min. | Rad. Sol. | |||||||||
| 00:05 | 20.0 | 91.8 | 1020.6 | 3.7 | NW | 3.7 | NW | 0.0 | 0.1 | |||||||||
| 00:10 | 20.0 | 92.0 | 1020.6 | 2.6 | NW | 3.9 | NW | 0.0 | 0.1 | |||||||||
| 00:15 | 19.9 | 91.7 | 1020.6 | 2.6 | WNW | 3.5 | WNW | 0.0 | 0.1 | |||||||||
| 00:20 | 19.9 | 91.7 | 1020.6 | 3.0 | NW | 3.9 | NW | 0.0 | 0.1 | |||||||||
| 00:25 | 19.8 | 91.5 | 1020.5 | 2.2 | NW | 3.5 | NW | 0.0 | 0.1 | |||||||||
| 00:30 | 19.7 | 91.6 | 1020.5 | 2.1 | NW | 3.2 | NW | 0.0 | 0.1 | |||||||||
| 00:35 | 19.7 | 91.6 | 1020.5 | 2.9 | NW | 3.5 | NW | 0.0 | 0.1 | |||||||||
| 00:40 | 19.6 | 91.7 | 1020.5 | 2.9 | NNW | 3.9 | NW | 0.0 | 0.1 | |||||||||
| 00:45 | 19.7 | 91.7 | 1020.6 | 2.6 | NW | 3.9 | NW | 0.0 | 0.1 | |||||||||
| 00:50 | 19.6 | 91.9 | 1020.6 | 1.8 | NNW | 2.8 | NW | 0.0 | 0.1 | |||||||||
| 00:55 | 19.6 | 91.9 | 1020.6 | 0.6 | NNW | 2.1 | NNW | 0.0 | 0.1 | |||||||||
| 01:00 | 19.6 | 91.9 | 1020.6 | 2.1 | NNW | 4.2 | N | 0.0 | 0.1 | |||||||||
| 01:05 | 19.6 | 92.1 | 1020.6 | 3.0 | NNW | 5.3 | NNW | 0.0 | 0.1 | |||||||||
| 01:10 | 19.7 | 91.9 | 1020.6 | 3.1 | NNW | 4.9 | NNW | 0.0 | 0.1 | |||||||||
| 01:15 | 19.6 | 91.8 | 1020.5 | 2.7 | NNW | 3.5 | NNW | 0.0 | 0.1 | |||||||||
| 01:20 | 19.6 | 91.7 | 1020.4 | 2.9 | NNW | 3.9 | NNW | 0.0 | 0.1 | |||||||||
| 01:25 | 19.6 | 91.6 | 1020.4 | 3.5 | NNW | 4.9 | N | 0.0 | 0.1 | |||||||||
| 01:30 | 19.6 | 91.7 | 1020.4 | 2.6 | NNW | 3.5 | NNW | 0.0 | 0.1 | |||||||||
| 01:35 | 19.5 | 91.7 | 1020.5 | 2.7 | NNW | 3.5 | NNW | 0.0 | 0.1 | |||||||||
| 01:40 | 19.5 | 92.0 | 1020.5 | 3.5 | NNW | 4.9 | NNW | 0.0 | 0.1 | |||||||||
| 01:45 | 19.6 | 92.3 | 1020.5 | 3.3 | NNW | 5.3 | NW | 0.0 | 0.1 | |||||||||
| 01:50 | 19.7 | 92.3 | 1020.4 | 2.7 | NNW | 3.5 | NNE | 0.0 | 0.1 | |||||||||
| 01:55 | 19.8 | 92.2 | 1020.4 | 2.5 | NNW | 3.9 | NNW | 0.0 | 0.1 | |||||||||
| 02:00 | 19.7 | 92.1 | 1020.4 | 2.1 | NNW | 2.8 | NNW | 0.0 | 0.1 | |||||||||
| Máxima | 20.0 | 92.3 | 1020.6 | 3.7 | NW | 5.3 | NW | 0.0 | 0.1 | |||||||||
| Mínima | 19.5 | 91.5 | 1020.4 | |||||||||||||||
| Total | 0.0 | |||||||||||||||||